Weather History for Tegucigalpa, Honduras

Change the Weather History Date:

Tuesday, February 12, 2013

  Actual Average Record
Temperature  
Mean Temperature 70 °F -  
Max Temperature 84 °F 81 °F 87 °F (2014)
Min Temperature 55 °F 58 °F 50 °F (2000)
Cooling Degree Days 4    
Growing Degree Days 20 (Base 50)    
Moisture  
Dew Point 57 °F    
Average Humidity 65    
Maximum Humidity 95    
Minimum Humidity 29    
Precipitation  
Precipitation 0.00 in 0.01 in - ()
Sea Level Pressure  
Sea Level Pressure 30.05 in    
Wind  
Wind Speed 3 mph ()    
Max Wind Speed 12 mph    
Max Gust Speed -    
Visibility 6.1 miles    
Events      
Averages and records for this station are not official NWS values.
T = Trace of Precipitation, MM = Missing Value Source: Averaged Metar Reports

Daily Weather History Graph

Daily Weather History Graph

Search for Another Location

Airport:

Trip Planner

Search our weather history database for the weather conditions in past years. The results will help you decide how hot, cold, wet, or windy it might be!

Date:

Astronomy

Feb. 12, 2013 Rise Set
Actual Time 6:13 AM CST 5:52 PM CST
Civil Twilight 5:51 AM CST 6:14 PM CST
Nautical Twilight 5:26 AM CST 6:40 PM CST
Astronomical Twilight 5:01 AM CST 7:05 PM CST
Moon 7:45 AM CST (2/12) 8:12 PM CST (2/12)
Length of Visible Light 12h 23m
Length of Day
11h 39m
Waxing Crescent, 7% of the Moon is Illuminated
Feb 12
Waxing Crescent
Feb 17
First Quarter
Feb 25
Full
Mar 4
Last Quarter
Mar 11
New

Hourly Weather History & Observations

Time (CST) Temp. Heat Index Dew Point Humidity Pressure Visibility Wind Dir Wind Speed Gust Speed Precip Events Conditions
12:00 AM 66 °F - 57 °F 66% 30.01 in 6 mi WSW 3.5 mph - -   Haze
12:00 AM 66.2 °F - 57.2 °F 73% 30.15 in 6.2 mi WSW 3.5 mph - N/A   Mostly Cloudy
1:00 AM 64.4 °F - 57.2 °F 77% 30.12 in 6.2 mi Calm Calm - N/A   Scattered Clouds
2:00 AM 60.8 °F - 57.2 °F 88% 30.12 in 6.2 mi Calm Calm - N/A   Partly Cloudy
3:00 AM 60 °F - 56 °F 83% 29.68 in 6 mi SW 2.3 mph - -   Haze
3:00 AM 59.0 °F - 57.2 °F 94% 30.12 in 6.2 mi SW 4.6 mph - N/A   Partly Cloudy
4:00 AM 59.0 °F - 57.2 °F 94% 30.12 in 6.2 mi Calm Calm - N/A   Partly Cloudy
5:00 AM 59.0 °F - 57.2 °F 94% 30.09 in 6.2 mi SW 3.5 mph - N/A   Partly Cloudy
6:00 AM 57 °F - 56 °F 95% 30.05 in 6 mi WSW 3.5 mph - -   Mist
6:00 AM 57.2 °F - 55.4 °F 94% 30.12 in 6.2 mi WSW 3.5 mph - N/A   Scattered Clouds
7:00 AM 57.2 °F - 55.4 °F 94% 30.12 in 6.2 mi Calm Calm - N/A   Partly Cloudy
8:00 AM 66.2 °F - 60.8 °F 83% 30.15 in 6.2 mi Calm Calm - N/A   Partly Cloudy
9:00 AM 71 °F - 59 °F 57% 29.99 in 6 mi ENE 4.6 mph - -   Haze
9:00 AM 71.6 °F - 59.0 °F 64% 30.15 in 6.2 mi ENE 4.6 mph - N/A   Scattered Clouds
10:00 AM 77.0 °F - 57.2 °F 50% 30.15 in 6.2 mi East 5.8 mph - N/A   Scattered Clouds
11:00 AM 78.8 °F - 57.2 °F 47% 30.15 in 6.2 mi East 10.4 mph - N/A   Scattered Clouds
12:00 PM 80 °F - 57 °F 35% 29.91 in 6 mi East 9.2 mph - -   Haze
12:00 PM 78.8 °F - 57.2 °F 47% 30.12 in 6.2 mi East 9.2 mph - N/A   Scattered Clouds
1:00 PM 80.6 °F 80.8 °F 57.2 °F 45% 30.09 in 6.2 mi ENE 11.5 mph - N/A   Scattered Clouds
2:00 PM 80.6 °F 80.5 °F 55.4 °F 42% 30.06 in 6.2 mi East 9.2 mph - N/A   Scattered Clouds
3:00 PM 83 °F - 56 °F 29% 29.78 in 6 mi East 4.6 mph - -   Haze
3:00 PM 82.4 °F 81.7 °F 55.4 °F 39% 30.04 in 6.2 mi East 4.6 mph - N/A   Scattered Clouds
4:00 PM 82.4 °F 81.7 °F 55.4 °F 39% 30.01 in 6.2 mi East 9.2 mph - N/A   Mostly Cloudy
5:00 PM 77.0 °F - 57.2 °F 50% 30.04 in 6.2 mi NE 6.9 mph - N/A   Mostly Cloudy
6:00 PM 75 °F - 57 °F 44% 29.84 in 6 mi NE 4.6 mph - -   Haze
6:00 PM 75.2 °F - 57.2 °F 53% 30.04 in 6.2 mi NE 4.6 mph - N/A   Partly Cloudy
7:00 PM 69.8 °F - 57.2 °F 64% 30.04 in 6.2 mi Calm Calm - N/A   Partly Cloudy
8:00 PM 68.0 °F - 57.2 °F 68% 30.06 in 6.2 mi Calm Calm - N/A   Partly Cloudy
9:00 PM 67 °F - 57 °F 62% 29.94 in 6 mi WSW 4.6 mph - -   Haze
9:00 PM 68.0 °F - 57.2 °F 68% 30.09 in 6.2 mi WSW 4.6 mph - N/A   Partly Cloudy
10:00 PM 64.4 °F - 55.4 °F 73% 30.09 in 6.2 mi SW 3.5 mph - N/A   Partly Cloudy
11:00 PM 64.4 °F - 57.2 °F 77% 30.09 in 6.2 mi WSW 5.8 mph - N/A   Partly Cloudy